User: anonymous   Login
Location: Caltech
(34.1382°N, 118.1253°W)
Time: 10:34:24
(UTC-07:00)
Language:

CZ-4B DEB - Orbit

View from above orbital plane
View from above orbital plane
View from above satellite
View from above satellite

Ground track
Ground track

The orbit data is extracted from the following two-line orbital elements,

1 27433U 02024D   18112.95291008 +.00000099 +00000-0 +78232-4 0  9998
2 27433 099.0072 091.8150 0013482 257.0946 102.8720 14.12255454820905
Epoch (UTC): 22 April 2018 22:52:11
Eccentricity: 0.0013482
inclination: 99.0072°
perigee height: 842 km
apogee height: 861 km
right ascension of ascending node: 91.8150°
argument of perigee: 257.0946°
revolutions per day: 14.12255454
mean anomaly at epoch: 102.8720°
orbit number at epoch: 82090

The dashed part of the orbit path shows where the satellite is in the earth's shadow,  

DLR